BEIDOU-2 G8 1 44231U 19027A 21056.90125721 -.00000250 00000-0 00000+0 0 9991 2 44231 0.4340 315.6120 0006822 268.3963 40.9534 1.00273799 6650 CZ-3C R/B 1 44232U 19027B 21056.52626901 .00009162 00000-0 12291-2 0 9994 2 44232 19.1369 192.4886 7129062 326.4767 4.0172 2.49118064 15786